Zurück zum Katalog

FENGYUN 1C DEB

AktivSSO
NORAD 30336·DEBRIS·🇨🇳 China

Gestartet May 10, 1999 von Taiyuan Satellite Launch Center

Loading…

Nächste Überflüge (nächste 24 Stunden)

TLE

AktuellSource: Space-Track

Epoche: Sep 13, 2026, 23:19 UTC

1 30336U 99025AAX 26256.97157461  .00000382  00000-0  19935-3 0  9994
2 30336  98.5845 274.7228 0042158 292.8924 132.9998 14.19657638 15045

Verfolge FENGYUN 1C DEB in Echtzeit mit AllMySat

Download on the App Store